FW2245 Weather Reports


time (UTC)temp
C
wind
direction
speed
KPH
gust
KPH
rain 1hr
cm
rain 24hr
cm
rain mn
cm
humidity
%
barometer
mb
20260506111535 6 0 0.0 1.6 0.00 3.68 1.04 95 1009.2
20260506110038 6 0 1.6 12.9 0.00 3.68 1.04 95 1009.3
20260506104547 6 318 1.6 8.0 0.00 3.68 1.04 95 1008.5
20260506103046 6 0 0.0 3.2 0.03 3.68 1.04 95 1008.3
20260506101549 6 24 0.0 6.4 0.05 3.68 1.04 95 1008.0
20260506100057 6 5 3.2 9.7 0.08 3.68 1.04 95 1007.4
20260506094536 7 355 1.6 11.3 0.10 3.68 1.04 95 1008.0
20260506093043 7 0 0.0 8.0 0.10 3.66 1.02 95 1008.7
20260506091539 6 0 0.0 3.2 0.08 3.63 0.99 95 1008.8
20260506090039 6 0 0.0 8.0 0.05 3.58 0.94 95 1008.5
20260506084558 6 360 1.6 8.0 0.13 3.58 0.94 95 1008.2
20260506083038 6 0 0.0 4.8 0.15 3.56 0.91 95 1008.3
20260506081547 6 0 0.0 6.4 0.25 3.56 0.91 95 1008.5
20260506073044 6 0 0.0 3.2 0.30 3.40 0.76 94 1008.5
20260506071538 7 0 0.0 3.2 0.23 3.30 0.66 94 1008.1
20260506061537 7 0 0.0 6.4 0.23 3.07 0.43 94 1008.2
20260506050203 7 0 0.0 8.0 0.15 2.79 0.15 94 1008.8
20260506041536 8 0 3.2 11.3 0.20 2.67 0.05 94 1008.9
20260506040042 8 5 3.2 12.9 0.20 2.64 0.00 94 1009.1
20260506034603 8 0 0.0 9.7 0.20 2.59 2.59 94 1009.2
20260506033039 8 5 1.6 8.0 0.23 2.54 2.54 94 1009.3
20260506031541 9 0 0.0 6.4 0.28 2.49 2.49 94 1009.5
20260506030039 9 355 0.0 4.8 0.33 2.44 2.44 94 1009.5
20260506024537 9 0 0.0 3.2 0.36 2.39 2.39 94 1009.6
20260506023052 9 0 0.0 3.2 0.38 2.31 2.31 94 1009.7
20260506021538 9 18 1.6 9.7 0.43 2.18 2.18 94 1009.2
20260506020039 9 5 1.6 8.0 0.51 2.11 2.11 94 1008.9
20260506014538 9 9 0.0 9.7 0.66 2.03 2.03 94 1008.7
20260506013040 9 0 1.6 8.0 0.66 1.93 1.93 93 1008.7
20260506011537 9 5 1.6 8.0 0.56 1.75 1.75 94 1008.9
20260506010042 9 0 3.2 12.9 0.41 1.57 1.57 93 1008.4
20260506004559 9 0 1.6 6.4 0.20 1.37 1.37 93 1008.6
20260506003046 10 14 3.2 12.9 0.10 1.24 1.24 93 1008.2
20260506001540 10 0 0.0 6.4 0.13 1.19 1.19 93 1008.2
20260506000037 10 15 0.0 6.4 0.18 1.17 1.17 93 1008.3
20260505234557 10 0 0.0 4.8 0.36 1.17 1.17 93 1008.1
20260505233039 10 0 0.0 9.7 0.76 1.14 1.14 92 1008.2
20260505231540 11 5 3.2 14.5 0.71 1.07 1.07 92 1008.3
20260505230042 11 14 4.8 16.1 0.66 0.99 0.99 92 1008.4
20260505224540 13 336 0.0 8.0 0.46 0.79 0.79 92 1008.5
20260505223037 13 0 0.0 4.8 0.05 0.38 0.38 92 1007.8
20260505221537 13 0 0.0 6.4 0.03 0.36 0.36 91 1007.7
20260505220054 13 296 0.0 4.8 0.00 0.33 0.33 91 1008.0
20260505214540 13 0 0.0 3.2 0.18 0.33 0.33 91 1008.0
20260505213037 13 300 0.0 9.7 0.18 0.33 0.33 90 1008.0
20260505211545 14 234 0.0 8.0 0.23 0.33 0.33 90 1007.9
20260505210037 14 0 0.0 12.9 0.30 0.33 0.33 89 1008.2
20260505204537 14 236 0.0 6.4 0.13 0.15 0.15 88 1008.1
20260505203040 15 0 0.0 6.4 0.13 0.15 0.15 87 1007.9
20260505201540 15 320 3.2 12.9 0.08 0.10 0.10 85 1007.9
20260505200038 15 0 0.0 11.3 0.00 0.03 0.03 82 1008.0
20260505194542 16 0 0.0 11.3 0.00 0.03 0.03 78 1007.9
20260505193044 17 297 0.0 16.1 0.00 0.03 0.03 74 1008.0
20260505191550 17 238 0.0 16.1 0.00 0.03 0.03 71 1008.0
20260505190040 17 165 1.6 8.0 0.00 0.03 0.03 71 1008.0
20260505184538 17 310 1.6 12.9 0.00 0.03 0.03 70 1008.2
20260505183037 17 0 1.6 8.0 0.00 0.03 0.03 69 1008.3
20260505181537 17 294 4.8 19.3 0.00 0.03 0.03 69 1008.4
20260505180045 17 267 3.2 16.1 0.00 0.03 0.03 67 1008.2
20260505174555 18 261 9.7 20.9 0.00 0.03 0.03 66 1008.1
20260505173037 18 269 4.8 19.3 0.00 0.03 0.03 65 1008.1
20260505171537 18 282 6.4 19.3 0.00 0.03 0.03 65 1008.1
20260505170046 18 208 4.8 24.1 0.00 0.03 0.03 64 1008.0
20260505164540 18 297 3.2 16.1 0.00 0.03 0.03 63 1008.0
20260505163043 18 306 3.2 16.1 0.00 0.03 0.03 62 1008.0
20260505161537 19 0 6.4 20.9 0.00 0.03 0.03 60 1008.0
20260505153051 20 192 6.4 24.1 0.00 0.03 0.03 59 1007.1
20260505151539 20 0 1.6 19.3 0.00 0.03 0.03 59 1006.9
20260505124536 15 239 4.8 16.1 0.00 0.03 0.03 77 1007.0
20260505123057 15 142 3.2 17.7 0.00 0.03 0.03 78 1006.8
20260505121536 15 178 1.6 19.3 0.03 0.03 0.03 79 1006.6
20260505120040 15 194 1.6 11.3 0.03 0.03 0.03 79 1006.4
20260505114551 15 172 3.2 8.0 0.03 0.03 0.03 78 1005.6
20260505113040 15 0 1.6 22.5 0.03 0.03 0.03 74 1005.7